{"data":{"norad_id":66486,"epoch":"2026-05-24T19:23:04.813440Z","epoch_age_seconds":102094,"freshness":"FRESH","line1":"1 66486U 25263B   26144.80769460  .00025191  00000+0  92180-3 0  9995","line2":"2 66486  43.0000 280.5252 0001466 282.3986  77.6702 15.27580153 30490","mean_motion":15.27580153,"eccentricity":0.0001466,"inclination_deg":43,"raan_deg":280.5252,"arg_perigee_deg":282.3986,"mean_anomaly_deg":77.6702,"bstar":0.0009218,"rev_number":3049,"period_min":94.266739272044,"perigee_km":482.04278808813,"apogee_km":484.05448771717,"semimajor_km":6861.1856379026,"source":"CELESTRAK","updated_at":"2026-05-25T13:38:21.241606Z"}}